Simultaneous Nadir Overpasses (SNOs) Predictions

Prediction of SNOs between GOES-16 and NOAA-20 Satellite Orbit:

Table of predicted SNOs for the next 14.0 days since TLE Epoch: 11/27/2021
Index Date Time (GOES-16) GOES-16 Lat,Lon NOAA-20 Lat,Lon Distance(km) Time Diff (sec)
1 11/27/2021 18:38:48 -0.01, -75.20 -0.79, -78.78 407.66 80
2 11/28/2021 18:22:42 -0.01, -75.20 0.22, -74.25 108.76 80
3 11/30/2021 06:44:29 0.01, -75.19 0.97, -79.51 492.37 80
4 12/01/2021 06:23:03 0.01, -75.18 -0.04, -74.97 24.15 80
5 12/03/2021 18:26:13 -0.01, -75.18 -0.11, -75.74 62.85 80
6 12/04/2021 18:10:08 -0.01, -75.18 0.90, -71.20 453.87 80
7 12/06/2021 06:31:54 0.01, -75.17 0.29, -76.46 146.79 80
8 12/07/2021 06:10:28 0.00, -75.17 -0.72, -71.93 369.95 80
9 12/08/2021 18:32:24 0.00, -75.18 -0.44, -77.23 233.06 80
10 12/09/2021 18:16:18 0.00, -75.19 0.58, -72.69 284.43 80
